TimeCST,TemperatureF,Dew PointF,Humidity,Sea Level PressureIn,VisibilityMPH,Wind Direction,Wind SpeedMPH,Gust SpeedMPH,PrecipitationIn,Events,Conditions,WindDirDegrees,DateUTC
12:15 AM,28.4,24.8,86,30.15,10.0,SSW,12.7,-,N/A,,Clear,200,2012-12-31 06:15:00
12:35 AM,28.4,23.0,80,30.14,10.0,South,10.4,-,N/A,,Clear,190,2012-12-31 06:35:00
12:55 AM,28.4,23.0,80,30.14,10.0,South,10.4,-,N/A,,Clear,190,2012-12-31 06:55:00
1:15 AM,28.4,23.0,80,30.13,10.0,South,13.8,19.6,N/A,,Clear,190,2012-12-31 07:15:00
1:35 AM,28.4,23.0,80,30.13,10.0,SSW,10.4,-,N/A,,Clear,200,2012-12-31 07:35:00
1:55 AM,30.2,24.8,80,30.13,10.0,SSW,16.1,-,N/A,,Clear,200,2012-12-31 07:55:00
2:15 AM,30.2,24.8,80,30.13,10.0,SSW,16.1,21.9,N/A,,Clear,200,2012-12-31 08:15:00
2:35 AM,30.2,24.8,80,30.12,10.0,SSW,16.1,-,N/A,,Scattered Clouds,200,2012-12-31 08:35:00
2:55 AM,30.2,24.8,80,30.11,10.0,SSW,15.0,23.0,N/A,,Clear,210,2012-12-31 08:55:00
3:15 AM,30.2,24.8,80,30.10,10.0,SSW,13.8,19.6,N/A,,Clear,210,2012-12-31 09:15:00
3:35 AM,30.2,24.8,80,30.11,10.0,SSW,13.8,19.6,N/A,,Clear,210,2012-12-31 09:35:00
3:55 AM,30.2,24.8,80,30.10,10.0,SSW,15.0,-,N/A,,Clear,210,2012-12-31 09:55:00
4:15 AM,32.0,26.6,80,30.11,10.0,SW,19.6,26.5,N/A,,Clear,220,2012-12-31 10:15:00
4:35 AM,32.0,24.8,75,30.09,10.0,SW,16.1,23.0,N/A,,Clear,220,2012-12-31 10:35:00
4:55 AM,32.0,26.6,80,30.09,10.0,SW,15.0,21.9,N/A,,Clear,220,2012-12-31 10:55:00
5:15 AM,32.0,26.6,80,30.09,10.0,SW,16.1,-,N/A,,Scattered Clouds,220,2012-12-31 11:15:00
5:35 AM,32.0,26.6,80,30.08,10.0,SSW,13.8,19.6,N/A,,Scattered Clouds,210,2012-12-31 11:35:00
5:55 AM,32.0,26.6,80,30.08,10.0,SSW,12.7,20.7,N/A,,Scattered Clouds,210,2012-12-31 11:55:00
6:15 AM,32.0,26.6,80,30.08,10.0,SSW,11.5,-,N/A,,Clear,210,2012-12-31 12:15:00
6:35 AM,32.0,26.6,80,30.08,10.0,SSW,11.5,-,N/A,,Scattered Clouds,210,2012-12-31 12:35:00
6:55 AM,32.0,26.6,80,30.08,10.0,SSW,16.1,-,N/A,,Scattered Clouds,210,2012-12-31 12:55:00
7:15 AM,32.0,26.6,80,30.08,10.0,SW,16.1,-,N/A,,Mostly Cloudy,220,2012-12-31 13:15:00
7:35 AM,32.0,26.6,80,30.09,10.0,SSW,15.0,-,N/A,,Overcast,210,2012-12-31 13:35:00
7:55 AM,32.0,26.6,80,30.09,10.0,SW,12.7,-,N/A,,Overcast,220,2012-12-31 13:55:00
8:15 AM,32.0,26.6,80,30.09,10.0,SW,15.0,-,N/A,,Overcast,220,2012-12-31 14:15:00
8:35 AM,32.0,26.6,80,30.08,10.0,SW,13.8,19.6,N/A,,Mostly Cloudy,220,2012-12-31 14:35:00
8:55 AM,33.8,26.6,75,30.09,10.0,SW,13.8,-,N/A,,Overcast,220,2012-12-31 14:55:00
9:15 AM,33.8,28.4,81,30.08,10.0,SW,11.5,-,N/A,,Overcast,220,2012-12-31 15:15:00
9:35 AM,33.8,28.4,81,30.08,10.0,SSW,11.5,-,N/A,,Overcast,210,2012-12-31 15:35:00
9:55 AM,33.8,28.4,81,30.08,10.0,SSW,11.5,-,N/A,,Overcast,210,2012-12-31 15:55:00
10:15 AM,33.8,28.4,81,30.09,10.0,SW,15.0,-,N/A,,Overcast,220,2012-12-31 16:15:00
10:35 AM,33.8,28.4,81,30.08,10.0,SW,12.7,-,N/A,,Overcast,220,2012-12-31 16:35:00
10:55 AM,33.8,30.2,87,30.08,3.0,SW,19.6,24.2,N/A,Snow,Light Snow,230,2012-12-31 16:55:00
11:15 AM,32.0,32.0,100,30.07,1.5,SW,15.0,20.7,N/A,Snow,Light Snow,230,2012-12-31 17:15:00
11:35 AM,32.0,32.0,100,30.06,2.0,SW,15.0,20.7,N/A,Snow,Light Snow,220,2012-12-31 17:35:00
11:55 AM,32.0,32.0,100,30.06,1.5,SW,17.3,-,N/A,Snow,Light Snow,220,2012-12-31 17:55:00
12:15 PM,32.0,32.0,100,30.05,1.2,SW,15.0,-,N/A,Snow,Light Snow,220,2012-12-31 18:15:00
12:35 PM,32.0,32.0,100,30.05,1.0,SW,11.5,-,N/A,Snow,Light Snow,220,2012-12-31 18:35:00
12:55 PM,32.0,32.0,100,30.05,1.0,SW,12.7,-,N/A,Snow,Light Snow,220,2012-12-31 18:55:00
1:15 PM,32.0,32.0,100,30.05,1.8,SW,16.1,19.6,N/A,Snow,Light Snow,220,2012-12-31 19:15:00
1:35 PM,32.0,32.0,100,30.04,1.5,SW,11.5,18.4,N/A,Snow,Light Snow,230,2012-12-31 19:35:00
1:55 PM,32.0,32.0,100,30.03,1.8,SW,11.5,-,N/A,Snow,Light Snow,220,2012-12-31 19:55:00
2:15 PM,32.0,32.0,100,30.03,1.5,SW,11.5,-,N/A,Snow,Light Snow,230,2012-12-31 20:15:00
2:35 PM,32.0,32.0,100,30.04,1.5,SW,12.7,-,N/A,Snow,Light Snow,230,2012-12-31 20:35:00
2:55 PM,32.0,32.0,100,30.05,1.2,SW,11.5,-,N/A,Snow,Light Snow,230,2012-12-31 20:55:00
3:15 PM,32.0,32.0,100,30.04,1.0,SW,10.4,-,N/A,Snow,Light Snow,230,2012-12-31 21:15:00
3:35 PM,32.0,32.0,100,30.05,2.0,WSW,11.5,-,N/A,Snow,Light Snow,240,2012-12-31 21:35:00
3:55 PM,32.0,32.0,100,30.04,4.0,WSW,10.4,-,N/A,Snow,Light Snow,250,2012-12-31 21:55:00
4:15 PM,32.0,32.0,100,30.04,2.5,West,11.5,-,N/A,Snow,Light Snow,260,2012-12-31 22:15:00
4:35 PM,32.0,32.0,100,30.04,4.0,West,10.4,-,N/A,Snow,Light Snow,260,2012-12-31 22:35:00
5:15 PM,32.0,30.2,93,30.05,4.0,WSW,8.1,-,N/A,Snow,Light Snow,250,2012-12-31 23:15:00
5:35 PM,30.2,30.2,100,30.06,5.0,WSW,6.9,-,N/A,Snow,Light Snow,250,2012-12-31 23:35:00
6:15 PM,30.2,30.2,100,30.06,4.0,West,8.1,-,N/A,Snow,Light Snow,260,2013-01-01 00:15:00
6:35 PM,30.2,30.2,100,30.07,4.0,WSW,8.1,-,N/A,Snow,Light Snow,250,2013-01-01 00:35:00
6:55 PM,30.2,30.2,100,30.06,5.0,West,9.2,-,N/A,Snow,Light Snow,270,2013-01-01 00:55:00
7:15 PM,30.2,30.2,100,30.07,5.0,West,9.2,-,N/A,Snow,Light Snow,270,2013-01-01 01:15:00
7:35 PM,30.2,28.4,93,30.06,7.0,West,5.8,-,N/A,,Overcast,280,2013-01-01 01:35:00
7:55 PM,30.2,28.4,93,30.07,7.0,WNW,6.9,-,N/A,,Overcast,290,2013-01-01 01:55:00
8:15 PM,30.2,28.4,93,30.06,10.0,WNW,5.8,-,N/A,,Overcast,300,2013-01-01 02:15:00
8:35 PM,28.4,28.4,100,30.06,10.0,WNW,6.9,-,N/A,,Overcast,300,2013-01-01 02:35:00
8:55 PM,28.4,26.6,93,30.07,10.0,WNW,5.8,-,N/A,,Overcast,300,2013-01-01 02:55:00
9:15 PM,28.4,26.6,93,30.08,10.0,WNW,5.8,-,N/A,,Overcast,290,2013-01-01 03:15:00
9:35 PM,28.4,26.6,93,30.08,10.0,West,4.6,-,N/A,,Overcast,280,2013-01-01 03:35:00
9:55 PM,28.4,26.6,93,30.09,10.0,West,5.8,-,N/A,,Overcast,270,2013-01-01 03:55:00
10:15 PM,28.4,24.8,86,30.09,10.0,West,4.6,-,N/A,,Overcast,280,2013-01-01 04:15:00
10:35 PM,28.4,24.8,86,30.10,10.0,West,6.9,-,N/A,,Overcast,280,2013-01-01 04:35:00
10:55 PM,28.4,24.8,86,30.09,10.0,WNW,5.8,-,N/A,,Overcast,290,2013-01-01 04:55:00
11:15 PM,26.6,23.0,86,30.09,10.0,WNW,6.9,-,N/A,,Overcast,290,2013-01-01 05:15:00
11:35 PM,26.6,23.0,86,30.09,10.0,WNW,5.8,-,N/A,,Overcast,290,2013-01-01 05:35:00